FW1369 Weather Reports


Display with metric or nautical units.
time (UTC)temp
F
wind
direction
speed
MPH
gust
MPH
rain 1hr
in
rain 24hr
in
rain mn
in
humidity
%
barometer
mb
20260906212045 69 328 1.0 12.0 0.00 0.00 0.00 67 1017.4
20260906211546 69 60 2.0 12.0 0.00 0.00 0.00 67 1017.3
20260906211045 69 18 2.0 7.0 0.00 0.00 0.00 68 1017.3
20260906210544 69 41 3.0 10.0 0.00 0.00 0.00 67 1017.3
20260906210044 69 42 3.0 10.0 0.00 0.00 0.00 68 1017.4
20260906205544 69 36 2.0 10.0 0.00 0.00 0.00 68 1017.3
20260906205044 69 82 4.0 10.0 0.00 0.00 0.00 67 1017.3
20260906204543 69 44 3.0 9.0 0.00 0.00 0.00 68 1017.3
20260906204043 69 88 3.0 9.0 0.00 0.00 0.00 68 1017.2
20260906203543 69 34 3.0 9.0 0.00 0.00 0.00 67 1017.1
20260906203043 69 46 2.0 10.0 0.00 0.00 0.00 66 1017.1
20260906202542 69 27 3.0 10.0 0.00 0.00 0.00 66 1017.1
20260906202042 70 37 2.0 10.0 0.00 0.00 0.00 65 1017.1
20260906201611 70 313 4.0 10.0 0.00 0.00 0.00 67 1017.0
20260906201041 70 342 2.0 8.0 0.00 0.00 0.00 68 1017.0
20260906200543 70 336 2.0 6.0 0.00 0.00 0.00 66 1017.0
20260906200041 70 44 2.0 6.0 0.00 0.00 0.00 66 1017.1
20260906195541 70 319 2.0 9.0 0.00 0.00 0.00 67 1017.1
20260906195040 70 56 3.0 9.0 0.00 0.00 0.00 66 1017.1
20260906194553 70 32 3.0 9.0 0.00 0.00 0.00 64 1017.1
20260906194041 70 88 2.0 11.0 0.00 0.00 0.00 64 1017.2
20260906193540 70 350 2.0 11.0 0.00 0.00 0.00 65 1017.2
20260906193044 71 50 4.0 10.0 0.00 0.00 0.00 65 1017.1
20260906192540 71 41 3.0 10.0 0.00 0.00 0.00 65 1017.0
20260906192040 71 24 2.0 9.0 0.00 0.00 0.00 66 1017.0
20260906191540 71 360 3.0 9.0 0.00 0.00 0.00 65 1017.0
20260906191039 71 81 2.0 5.0 0.00 0.00 0.00 65 1017.0
20260906190542 71 328 1.0 7.0 0.00 0.00 0.00 65 1016.9
20260906190038 71 15 1.0 9.0 0.00 0.00 0.00 64 1017.0
20260906185537 71 12 3.0 9.0 0.00 0.00 0.00 64 1017.0
20260906185037 71 69 4.0 8.0 0.00 0.00 0.00 64 1017.0
20260906184537 71 9 2.0 8.0 0.00 0.00 0.00 64 1017.0
20260906184040 71 24 1.0 9.0 0.00 0.00 0.00 66 1017.0
20260906183536 71 360 2.0 9.0 0.00 0.00 0.00 65 1017.0
20260906183037 71 36 2.0 8.0 0.00 0.00 0.00 65 1017.0
20260906182535 71 350 2.0 9.0 0.00 0.00 0.00 65 1017.1
20260906182034 71 42 3.0 9.0 0.00 0.00 0.00 64 1017.1
20260906181543 71 340 4.0 10.0 0.00 0.00 0.00 65 1017.1
20260906181034 71 38 3.0 10.0 0.00 0.00 0.00 65 1017.0
20260906180532 71 52 2.0 9.0 0.00 0.00 0.00 65 1017.1
20260906180035 71 49 3.0 11.0 0.00 0.00 0.00 66 1017.1
20260906175531 71 34 3.0 11.0 0.00 0.00 0.00 66 1017.2
20260906175030 70 62 3.0 9.0 0.00 0.00 0.00 65 1017.0
20260906174530 70 60 3.0 9.0 0.00 0.00 0.00 65 1017.1
20260906174030 70 27 3.0 9.0 0.00 0.00 0.00 64 1017.1
20260906173529 70 19 4.0 9.0 0.00 0.00 0.00 65 1017.1
20260906173030 70 50 5.0 9.0 0.00 0.00 0.00 64 1017.0
20260906172532 70 90 4.0 10.0 0.00 0.00 0.00 64 1017.1
20260906172032 70 55 4.0 10.0 0.00 0.00 0.00 66 1017.2
20260906171531 70 85 3.0 8.0 0.00 0.00 0.00 66 1017.2
20260906171028 70 80 2.0 8.0 0.00 0.00 0.00 67 1017.2
20260906170528 70 65 3.0 10.0 0.00 0.00 0.00 65 1017.3
20260906170029 70 33 2.0 10.0 0.00 0.00 0.00 67 1017.3
20260906165527 70 23 3.0 12.0 0.00 0.00 0.00 67 1017.2
20260906165030 70 32 4.0 12.0 0.00 0.00 0.00 66 1017.2
20260906164526 70 355 4.0 11.0 0.00 0.00 0.00 66 1017.1
20260906164027 70 25 4.0 10.0 0.00 0.00 0.00 67 1017.0
20260906163525 70 360 2.0 11.0 0.00 0.00 0.00 67 1017.0
20260906163040 70 348 4.0 11.0 0.00 0.00 0.00 67 1017.0
20260906162528 71 355 2.0 11.0 0.00 0.00 0.00 67 1017.0
20260906162027 71 44 2.0 11.0 0.00 0.00 0.00 68 1017.0
20260906161526 71 77 6.0 11.0 0.00 0.00 0.00 67 1017.0
20260906161022 70 64 5.0 10.0 0.00 0.00 0.00 69 1017.0
20260906160520 70 58 2.0 9.0 0.00 0.00 0.00 72 1017.0
20260906160022 70 45 3.0 9.0 0.00 0.00 0.00 72 1016.9
20260906155520 70 51 4.0 8.0 0.00 0.00 0.00 73 1016.9
20260906155018 69 101 1.0 10.0 0.00 0.00 0.00 73 1016.9
20260906154516 69 103 3.0 10.0 0.00 0.00 0.00 73 1017.0
20260906154015 69 44 2.0 9.0 0.00 0.00 0.00 75 1016.9
20260906153514 68 34 1.0 9.0 0.00 0.00 0.00 75 1016.9
20260906153014 68 5 3.0 9.0 0.00 0.00 0.00 75 1016.9
20260906152513 68 89 2.0 12.0 0.00 0.00 0.00 76 1016.8
20260906152012 68 18 4.0 12.0 0.00 0.00 0.00 76 1016.8
20260906151512 68 107 3.0 9.0 0.00 0.00 0.00 79 1016.8
20260906151015 67 82 1.0 8.0 0.00 0.00 0.00 81 1016.8
20260906150509 67 30 0.0 7.0 0.00 0.00 0.00 80 1016.9
20260906150012 67 48 2.0 7.0 0.00 0.00 0.00 81 1016.9
20260906145507 67 308 1.0 8.0 0.00 0.00 0.00 81 1016.8
20260906145007 66 355 3.0 8.0 0.00 0.00 0.00 82 1016.8
20260906144507 66 336 3.0 7.0 0.00 0.00 0.00 82 1016.8
20260906144006 66 15 2.0 8.0 0.00 0.00 0.00 83 1016.9
20260906143505 66 5 2.0 8.0 0.00 0.00 0.00 84 1016.8
20260906143004 66 60 1.0 7.0 0.00 0.00 0.00 85 1016.8
20260906142504 65 54 2.0 8.0 0.00 0.00 0.00 85 1016.8
20260906142003 65 40 2.0 10.0 0.00 0.00 0.00 86 1016.8
20260906141501 65 57 2.0 10.0 0.00 0.00 0.00 86 1016.7
20260906141105 65 90 2.0 10.0 0.00 0.00 0.00 87 1016.7
20260906140559 64 327 2.0 9.0 0.00 0.00 0.00 87 1016.6
20260906140108 64 40 2.0 9.0 0.00 0.00 0.00 88 1016.5
20260906135557 64 88 3.0 9.0 0.00 0.00 0.00 88 1016.5
20260906135056 64 76 2.0 10.0 0.00 0.00 0.00 88 1016.4
20260906134612 64 80 2.0 10.0 0.00 0.00 0.00 89 1016.3
20260906134056 64 343 2.0 9.0 0.00 0.00 0.00 89 1016.4
20260906133556 64 360 3.0 8.0 0.00 0.00 0.00 89 1016.5
20260906133059 64 63 1.0 5.0 0.00 0.00 0.00 89 1016.5
20260906132556 63 65 1.0 8.0 0.00 0.00 0.00 89 1016.4
20260906132053 63 71 1.0 8.0 0.00 0.00 0.00 89 1016.4
20260906131554 63 10 2.0 9.0 0.00 0.00 0.00 89 1016.3
20260906131052 63 34 3.0 10.0 0.00 0.00 0.00 89 1016.2
20260906130552 63 80 3.0 10.0 0.00 0.00 0.00 89 1016.3
20260906125555 63 78 1.0 6.0 0.00 0.00 0.00 89 1016.3
20260906125051 63 48 1.0 8.0 0.00 0.00 0.00 89 1016.1
20260906124550 63 78 3.0 8.0 0.00 0.00 0.00 89 1016.2
20260906124053 63 76 1.0 9.0 0.00 0.00 0.00 89 1016.1
20260906123549 63 86 3.0 9.0 0.00 0.00 0.00 89 1016.2
20260906123050 63 20 1.0 4.0 0.00 0.00 0.00 89 1016.1
20260906122551 62 5 1.0 4.0 0.00 0.00 0.00 89 1016.1
20260906122049 62 23 0.0 0.0 0.00 0.00 0.00 89 1016.1
20260906121550 62 22 0.0 0.0 0.00 0.00 0.00 89 1016.1
20260906121051 62 22 0.0 0.0 0.00 0.00 0.00 89 1016.0
20260906120548 61 22 0.0 0.0 0.00 0.00 0.00 89 1016.0
20260906120047 61 22 0.0 0.0 0.00 0.00 0.00 89 1015.9
20260906115548 61 22 0.0 0.0 0.00 0.00 0.00 88 1015.8
20260906115044 61 22 0.0 0.0 0.00 0.00 0.00 88 1015.6
20260906114544 61 22 0.0 0.0 0.00 0.00 0.00 88 1015.6
20260906114043 60 23 0.0 0.0 0.00 0.00 0.00 88 1015.6
20260906113543 60 23 0.0 0.0 0.00 0.00 0.00 88 1015.5
20260906113043 60 23 0.0 0.0 0.00 0.00 0.00 87 1015.5
20260906112543 60 23 0.0 0.0 0.00 0.00 0.00 87 1015.5
20260906112042 60 23 0.0 0.0 0.00 0.00 0.00 87 1015.4
20260906111546 60 23 0.0 0.0 0.00 0.00 0.00 87 1015.4
20260906111044 60 23 0.0 0.0 0.00 0.00 0.00 87 1015.4
20260906110542 60 23 0.0 0.0 0.00 0.00 0.00 87 1015.4
20260906110039 60 23 0.0 0.0 0.00 0.00 0.00 87 1015.2
20260906105539 59 23 0.0 0.0 0.00 0.00 0.00 87 1015.2
20260906105039 59 23 0.0 0.0 0.00 0.00 0.00 87 1015.2
20260906104538 59 23 0.0 0.0 0.00 0.00 0.00 87 1015.1
20260906104040 59 23 0.0 0.0 0.00 0.00 0.00 87 1015.1
20260906103539 59 23 0.0 0.0 0.00 0.00 0.00 87 1015.1
20260906103037 59 23 0.0 0.0 0.00 0.00 0.00 87 1015.1
20260906102537 59 23 0.0 0.0 0.00 0.00 0.00 87 1015.0
20260906102036 59 23 0.0 0.0 0.00 0.00 0.00 87 1014.9
20260906101535 59 23 0.0 0.0 0.00 0.00 0.00 86 1014.8
20260906101035 59 23 0.0 0.0 0.00 0.00 0.00 86 1014.8
20260906100535 60 23 0.0 0.0 0.00 0.00 0.00 86 1014.7
20260906100039 60 23 0.0 0.0 0.00 0.00 0.00 86 1014.6
20260906095534 60 23 0.0 0.0 0.00 0.00 0.00 86 1014.6
20260906095032 60 23 0.0 0.0 0.00 0.00 0.00 86 1014.6
20260906094532 60 23 0.0 0.0 0.00 0.00 0.00 86 1014.6
20260906094030 60 23 0.0 0.0 0.00 0.00 0.00 86 1014.5
20260906093531 60 23 0.0 0.0 0.00 0.00 0.00 86 1014.5
20260906093044 60 23 0.0 0.0 0.00 0.00 0.00 86 1014.5
20260906092529 60 23 0.0 0.0 0.00 0.00 0.00 86 1014.5
20260906092029 60 23 0.0 0.0 0.00 0.00 0.00 86 1014.4
20260906091528 61 23 0.0 0.0 0.00 0.00 0.00 86 1014.3
20260906091028 61 23 0.0 0.0 0.00 0.00 0.00 86 1014.2
20260906090525 61 23 0.0 0.0 0.00 0.00 0.00 86 1014.1
20260906090025 61 23 0.0 0.0 0.00 0.00 0.00 86 1014.0
20260906085524 61 23 0.0 0.0 0.00 0.00 0.00 86 1013.9
20260906085024 61 23 0.0 0.0 0.00 0.00 0.00 86 1013.8
20260906084525 61 23 0.0 0.0 0.00 0.00 0.00 86 1013.8
20260906084024 61 23 0.0 0.0 0.00 0.00 0.00 86 1013.7
20260906083524 61 23 0.0 0.0 0.00 0.00 0.00 86 1013.7
20260906083025 61 23 0.0 0.0 0.00 0.00 0.00 86 1013.7
20260906082523 61 23 0.0 0.0 0.00 0.00 0.00 86 1013.7
20260906082023 61 23 0.0 0.0 0.00 0.00 0.00 86 1013.7
20260906081542 61 23 0.0 0.0 0.00 0.00 0.00 86 1013.7
20260906081023 62 23 0.0 0.0 0.00 0.00 0.00 86 1013.6
20260906080521 62 23 0.0 0.0 0.00 0.00 0.00 86 1013.7
20260906080021 62 23 0.0 0.0 0.00 0.00 0.00 86 1013.7
20260906075520 62 23 0.0 0.0 0.00 0.00 0.00 86 1013.7
20260906075019 62 23 0.0 0.0 0.00 0.00 0.00 86 1013.6
20260906074519 62 23 0.0 0.0 0.00 0.00 0.00 86 1013.6
20260906074018 62 23 0.0 0.0 0.00 0.00 0.00 86 1013.5
20260906073518 62 23 0.0 0.0 0.00 0.00 0.00 86 1013.5
20260906073035 62 23 0.0 0.0 0.00 0.00 0.00 86 1013.6
20260906072517 63 23 0.0 0.0 0.00 0.00 0.00 86 1013.6
20260906072017 63 23 0.0 0.0 0.00 0.00 0.00 86 1013.5
20260906071516 63 23 0.0 0.0 0.00 0.00 0.00 86 1013.5
20260906071016 63 23 0.0 0.0 0.00 0.00 0.00 86 1013.6
20260906070518 63 23 0.0 0.0 0.00 0.00 0.00 86 1013.6
20260906070016 63 23 0.0 0.0 0.00 0.00 0.00 86 1013.6
20260906065514 63 23 0.0 0.0 0.00 0.00 0.00 86 1013.6
20260906065014 63 23 0.0 0.0 0.00 0.00 0.00 86 1013.7
20260906064518 63 23 0.0 0.0 0.00 0.00 0.00 86 1013.6
20260906064015 63 23 0.0 0.0 0.00 0.00 0.00 85 1013.6
20260906063516 63 23 0.0 0.0 0.00 0.00 0.00 85 1013.7
20260906063014 63 23 0.0 0.0 0.00 0.00 0.00 85 1013.7
20260906062514 63 23 0.0 0.0 0.00 0.00 0.00 85 1013.7
20260906062013 63 23 0.0 0.0 0.00 0.00 0.00 85 1013.7
20260906061512 63 23 0.0 0.0 0.00 0.00 0.00 85 1013.7
20260906061013 63 23 0.0 0.0 0.00 0.00 0.00 85 1013.7
20260906060514 63 23 0.0 0.0 0.00 0.00 0.00 85 1013.7
20260906060011 63 23 0.0 0.0 0.00 0.00 0.00 85 1013.6
20260906055512 63 23 0.0 0.0 0.00 0.00 0.00 85 1013.6
20260906055012 63 23 0.0 0.0 0.00 0.00 0.00 85 1013.6
20260906054515 63 23 0.0 0.0 0.00 0.00 0.00 85 1013.7
20260906054011 63 23 0.0 0.0 0.00 0.00 0.00 84 1013.7
20260906053511 63 23 0.0 0.0 0.00 0.00 0.00 84 1013.9
20260906053011 63 23 0.0 0.0 0.00 0.00 0.00 84 1013.9
20260906052511 63 23 0.0 0.0 0.00 0.00 0.00 84 1013.9
20260906052011 63 23 0.0 0.0 0.00 0.00 0.00 84 1013.9
20260906051518 63 23 0.0 0.0 0.00 0.00 0.00 84 1013.9
20260906051010 63 23 0.0 0.0 0.00 0.00 0.00 84 1013.9
20260906050508 63 23 0.0 0.0 0.00 0.00 0.00 84 1013.9
20260906050008 63 23 0.0 0.0 0.00 0.00 0.00 84 1013.8
20260906045508 63 23 0.0 0.0 0.00 0.00 0.00 83 1013.8
20260906045008 63 23 0.0 0.0 0.00 0.00 0.00 83 1013.7
20260906044506 63 23 0.0 0.0 0.00 0.00 0.00 83 1013.6
20260906044006 63 23 0.0 0.0 0.00 0.00 0.00 83 1013.6
20260906043505 63 23 0.0 0.0 0.00 0.00 0.00 83 1013.6
20260906043005 63 23 0.0 0.0 0.00 0.00 0.00 83 1013.6
20260906042506 63 23 0.0 0.0 0.00 0.00 0.00 83 1013.6
20260906042004 63 23 0.0 0.0 0.00 0.00 0.00 83 1013.6
20260906041504 63 23 0.0 0.0 0.00 0.00 0.00 83 1013.6
20260906041003 63 23 0.0 0.0 0.00 0.00 0.00 83 1013.5
20260906040502 63 23 0.0 0.0 0.00 0.00 0.00 83 1013.6
20260906040003 63 23 0.0 0.0 0.00 0.00 0.00 83 1013.6
20260906035502 64 23 0.0 0.0 0.00 0.00 0.00 83 1013.6
20260906035100 64 23 0.0 0.0 0.00 0.00 0.00 83 1013.5
20260906034600 64 23 0.0 0.0 0.00 0.00 0.00 83 1013.4
20260906034101 64 23 0.0 0.0 0.00 0.00 0.00 82 1013.4
20260906033601 64 23 0.0 0.0 0.00 0.00 0.00 82 1013.4
20260906033201 64 23 0.0 0.0 0.00 0.00 0.00 82 1013.4
20260906032601 64 23 0.0 0.0 0.00 0.00 0.00 82 1013.3
20260906032102 64 23 0.0 0.0 0.00 0.00 0.00 83 1013.3
20260906031608 64 23 0.0 0.0 0.00 0.00 0.00 82 1013.4
20260906031059 64 23 0.0 0.0 0.00 0.00 0.00 82 1013.4
20260906030559 64 23 0.0 0.0 0.00 0.00 0.00 82 1013.4
20260906030108 64 23 0.0 0.0 0.00 0.00 0.00 82 1013.3
20260906025558 64 23 0.0 0.0 0.00 0.00 0.00 82 1013.3
20260906025059 64 23 0.0 0.0 0.00 0.00 0.00 82 1013.3
20260906024556 64 23 0.0 0.0 0.00 0.00 0.00 82 1013.3
20260906024101 64 23 0.0 0.0 0.00 0.00 0.00 82 1013.2
20260906023557 64 23 0.0 0.0 0.00 0.00 0.00 81 1013.2
20260906023120 64 23 0.0 0.0 0.00 0.00 0.00 81 1013.1
20260906022556 64 23 0.0 0.0 0.00 0.00 0.00 81 1013.1
20260906022056 64 23 0.0 0.0 0.00 0.00 0.00 81 1013.1
20260906021556 64 23 0.0 0.0 0.00 0.00 0.00 81 1013.1
20260906021056 64 23 0.0 0.0 0.00 0.00 0.00 81 1013.1
20260906020555 65 23 0.0 0.0 0.00 0.00 0.00 81 1013.1
20260906020055 65 23 0.0 0.0 0.00 0.00 0.00 81 1013.1
20260906015555 65 23 0.0 0.0 0.00 0.00 0.00 81 1013.1
20260906015055 65 23 0.0 0.0 0.00 0.00 0.00 81 1013.1
20260906014617 65 23 0.0 0.0 0.00 0.00 0.00 81 1013.0
20260906014054 65 23 0.0 0.0 0.00 0.00 0.00 81 1013.0
20260906013553 65 23 0.0 0.0 0.00 0.00 0.00 80 1012.9
20260906013057 65 23 0.0 0.0 0.00 0.00 0.00 80 1012.9
20260906012553 66 23 0.0 0.0 0.00 0.00 0.00 80 1012.9
20260906012053 66 23 0.0 0.0 0.00 0.00 0.00 80 1012.8
20260906011556 66 23 0.0 0.0 0.00 0.00 0.00 80 1012.9
20260906011052 66 23 0.0 0.0 0.00 0.00 0.00 80 1012.9
20260906010552 66 23 0.0 0.0 0.00 0.00 0.00 79 1012.9
20260906010052 66 23 0.0 0.0 0.00 0.00 0.00 79 1012.9
20260906005551 67 23 0.0 0.0 0.00 0.00 0.00 79 1012.9
20260906005051 67 23 0.0 0.0 0.00 0.00 0.00 79 1012.9
20260906004604 67 23 0.0 0.0 0.00 0.00 0.00 78 1012.8
20260906004053 67 23 0.0 0.0 0.00 0.00 0.00 78 1012.7
20260906003551 67 23 0.0 0.0 0.00 0.00 0.00 77 1012.7
20260906003053 67 23 0.0 0.0 0.00 0.00 0.00 77 1012.6
20260906002550 68 23 0.0 0.0 0.00 0.00 0.00 77 1012.7
20260906002050 68 23 0.0 0.0 0.00 0.00 0.00 77 1012.7
20260906001550 68 23 0.0 0.0 0.00 0.00 0.00 77 1012.7
20260906001051 68 23 0.0 0.0 0.00 0.00 0.00 77 1012.7
20260906000551 69 23 0.0 1.0 0.00 0.00 0.00 77 1012.7
20260906000059 69 23 0.0 1.0 0.00 0.00 0.00 77 1012.8
20260905235549 69 23 0.0 2.0 0.00 0.00 0.00 76 1012.8
20260905235049 69 23 0.0 2.0 0.00 0.00 0.00 75 1012.7
20260905234555 69 23 0.0 1.0 0.00 0.00 0.00 75 1012.7
20260905234049 69 23 0.0 1.0 0.00 0.00 0.00 75 1012.7
20260905233549 70 23 0.0 2.0 0.00 0.00 0.00 74 1012.7
20260905233051 70 23 0.0 2.0 0.00 0.00 0.00 74 1012.7
20260905232548 70 23 0.0 4.0 0.00 0.00 0.00 74 1012.7
20260905232048 70 23 1.0 4.0 0.00 0.00 0.00 74 1012.8
20260905231548 71 19 0.0 3.0 0.00 0.00 0.00 74 1012.7
20260905231048 71 19 0.0 5.0 0.00 0.00 0.00 73 1012.7
20260905230548 71 19 1.0 5.0 0.00 0.00 0.00 73 1012.8
20260905230048 71 13 1.0 5.0 0.00 0.00 0.00 72 1012.7
20260905225546 72 31 1.0 4.0 0.00 0.00 0.00 72 1012.8
20260905225046 72 32 1.0 3.0 0.00 0.00 0.00 72 1012.7
20260905224600 72 32 0.0 5.0 0.00 0.00 0.00 71 1012.7
20260905224047 72 33 1.0 5.0 0.00 0.00 0.00 71 1012.8
20260905223545 73 30 1.0 5.0 0.00 0.00 0.00 70 1012.8
20260905223045 73 40 2.0 5.0 0.00 0.00 0.00 70 1012.7
20260905222545 73 51 1.0 6.0 0.00 0.00 0.00 69 1012.7
20260905222044 73 40 1.0 6.0 0.00 0.00 0.00 69 1012.7
20260905221544 73 56 1.0 4.0 0.00 0.00 0.00 70 1012.6
20260905221044 74 346 1.0 10.0 0.00 0.00 0.00 70 1012.6
20260905220544 74 96 3.0 10.0 0.00 0.00 0.00 70 1012.5
20260905220044 74 52 3.0 8.0 0.00 0.00 0.00 70 1012.5
20260905215544 74 9 3.0 8.0 0.00 0.00 0.00 69 1012.4
20260905215043 74 40 1.0 7.0 0.00 0.00 0.00 68 1012.3
20260905214545 74 84 1.0 6.0 0.00 0.00 0.00 68 1012.3
20260905214043 74 54 1.0 6.0 0.00 0.00 0.00 67 1012.3
20260905213542 74 59 2.0 6.0 0.00 0.00 0.00 67 1012.2
20260905213042 74 22 2.0 6.0 0.00 0.00 0.00 68 1012.2
20260905212542 74 66 2.0 6.0 0.00 0.00 0.00 68 1012.1